Location: Moonridge Observatory
(39.2268°N, 77.7914°W)
Time: 09:34:11
(UTC-04:00)

Amateur Radio Satellites - All Passes

Search period start: 16 August 2017 09:04
Search period end: 17 August 2017 09:04
Location: Moonridge Observatory, 39.2268°N, 77.7914°W

Satellite Date Start Highest point End Downlink Frequencies (MHz)
Time Altitude Azimuth
AO-73 16 Aug 09:07:13 09:10:59 30° 97° (E) 09:14:48 145.935
STRAND 1 16 Aug 09:13:26 09:16:22 15° 268° (W) 09:19:18 437.568
XW-2A 16 Aug 09:16:44 09:19:54 37° 286° (WNW) 09:23:03 145.665 - 145.685
SO-50 16 Aug 09:21:10 09:25:28 39° 53° (NE) 09:29:47 436.795
CUBEBUG 2 16 Aug 09:22:22 09:26:21 46° 286° (WNW) 09:30:23 437.445
UWE-3 16 Aug 09:26:23 09:30:35 74° 284° (WNW) 09:34:51 435.000/436.395/437.385
HO-68 16 Aug 09:27:03 09:33:51 48° 293° (WNW) 09:40:37 435.675
SEEDS 16 Aug 09:30:37 09:34:23 31° 289° (WNW) 09:38:06 437.485
UNISAT 6 16 Aug 09:43:49 09:47:45 33° 71° (ENE) 09:51:38 437.425
PRISM 16 Aug 09:53:08 09:56:45 29° 70° (ENE) 10:00:24 437.425
FO-29 16 Aug 09:55:37 10:03:27 83° 256° (WSW) 10:10:43 435.910
Oscar 11 16 Aug 09:58:29 10:02:52 88° 111° (ESE) 10:07:12 .
O/OREOS (USA 219) 16 Aug 09:59:07 10:01:36 15° 99° (E) 10:04:04 437.305
Max Valier Satellite 16 Aug 10:13:11 10:15:57 20° 95° (E) 10:18:42 145.860
ZACube-1 16 Aug 10:18:46 10:22:37 35° 288° (WNW) 10:26:31 437.345
TIGRISAT 16 Aug 10:20:00 10:24:23 78° 76° (ENE) 10:28:43 435.000
AAUSAT CUBESAT 2 16 Aug 10:33:46 10:36:00 14° 295° (WNW) 10:38:14 437.432
NO-84 16 Aug 10:34:35 10:37:44 54° 42° (NE) 10:41:08 435.350 FM
PCSat 16 Aug 10:39:44 10:44:27 31° 251° (WSW) 10:49:09 145.827
AO-73 16 Aug 10:43:48 10:47:02 22° 291° (WNW) 10:50:19 145.935
DELFI C3 16 Aug 10:51:53 10:55:54 86° 108° (ESE) 10:59:52 145.870
Tancredo 1 16 Aug 11:01:35 11:04:16 34° 136° (SE) 11:06:58 437.200
SO-50 16 Aug 11:02:10 11:05:40 22° 249° (WSW) 11:09:12 436.795
EO-88 16 Aug 11:18:26 11:22:06 71° 284° (WNW) 11:25:45 145.990 - 145.960
M-CUBED/EXP-1 PRIME 16 Aug 11:20:30 11:24:49 71° 70° (ENE) 11:29:25 437.505
UNISAT 6 16 Aug 11:21:15 11:24:30 20° 266° (W) 11:27:44 437.425
AIST 2D 16 Aug 11:22:47 11:26:05 43° 74° (ENE) 11:29:24 435.315
POLYITAN 1 16 Aug 11:25:13 11:28:26 22° 68° (ENE) 11:31:39 437.675
NANOSAT C BR1 16 Aug 11:25:53 11:28:56 20° 67° (ENE) 11:31:59 145.865
PRISM 16 Aug 11:28:52 11:32:01 21° 265° (W) 11:35:12 437.425
LO-87 16 Aug 11:33:22 11:35:50 18° 94° (E) 11:38:16 145.935 - 145.965
O/OREOS (USA 219) 16 Aug 11:36:14 11:40:32 47° 295° (WNW) 11:44:52 437.305
QB50P2 16 Aug 11:39:17 11:43:05 34° 71° (ENE) 11:46:55 145.880/145.840
EO-79 16 Aug 11:41:59 11:45:46 33° 71° (ENE) 11:49:33 145.935-145.965
FO-29 16 Aug 11:45:12 11:49:09 15° 271° (W) 11:52:59 435.910
Max Valier Satellite 16 Aug 11:46:44 11:49:43 24° 290° (WNW) 11:52:43 145.860
ESTCUBE 1 16 Aug 11:46:47 11:50:03 19° 93° (E) 11:53:20 437.505/2401.250
RS-15 16 Aug 11:54:00 12:05:35 53° 110° (ESE) 12:17:19 29.354- 29.394
NO-84 16 Aug 12:13:15 12:14:53 13° 234° (SW) 12:16:34 435.350 FM
ISS 16 Aug 12:16:47 12:20:00 59° 138° (SE) 12:23:14 437.550
DUCHIFAT 1 16 Aug 12:18:07 12:22:17 69° 74° (ENE) 12:26:27 145.980
nSIGHT-1 16 Aug 12:31:50 12:35:06 88° 335° (NNW) 12:38:22 .
Tancredo 1 16 Aug 12:37:09 12:39:34 23° 332° (NNW) 12:41:59 437.200
Oscar 19 16 Aug 12:38:26 12:41:41 17° 63° (ENE) 12:44:57 437.125/150
BUGSAT 1 16 Aug 12:40:06 12:43:46 32° 71° (ENE) 12:47:25 437.445
M-CUBED/EXP-1 PRIME 16 Aug 12:58:45 12:59:43 11° 267° (W) 13:00:41 437.505
POLYITAN 1 16 Aug 13:00:21 13:04:02 29° 263° (W) 13:07:44 437.675
NANOSAT C BR1 16 Aug 13:00:39 13:04:25 32° 263° (W) 13:08:12 145.865
SPROUT 16 Aug 13:04:31 13:08:21 32° 97° (E) 13:12:09 437.525
LO-87 16 Aug 13:06:20 13:09:13 24° 289° (WNW) 13:12:05 145.935 - 145.965
Gurwin Techsat 1B 16 Aug 13:08:46 13:12:46 22° 65° (ENE) 13:16:47 435.225
QB50P2 16 Aug 13:16:00 13:18:57 18° 266° (W) 13:21:55 145.880/145.840
EO-79 16 Aug 13:18:34 13:21:34 19° 266° (W) 13:24:35 145.935-145.965
ESTCUBE 1 16 Aug 13:22:46 13:26:58 37° 289° (WNW) 13:31:08 437.505/2401.250
AO-7 16 Aug 13:23:17 13:25:51 12° 45° (NE) 13:28:25 .
VELOX 1 16 Aug 13:52:16 13:56:43 89° 286° (WNW) 14:01:07 145.980
ISS 16 Aug 13:54:11 13:56:42 20° 335° (NNW) 13:59:15 437.550
UKube-1 16 Aug 14:01:04 14:04:13 19° 94° (E) 14:07:20 .
RS-15 16 Aug 14:06:24 14:18:12 51° 313° (NW) 14:30:09 29.354- 29.394
nSIGHT-1 16 Aug 14:09:41 14:11:53 16° 339° (NNW) 14:14:04 .
DX 1 16 Aug 14:11:03 14:15:09 39° 99° (E) 14:19:13 434.975-435.025
Oscar 19 16 Aug 14:15:28 14:20:30 58° 259° (W) 14:25:36 437.125/150
BUGSAT 1 16 Aug 14:16:14 14:19:10 19° 266° (W) 14:22:05 437.445
SPROUT 16 Aug 14:40:55 14:44:01 20° 293° (WNW) 14:47:06 437.525
50 SAT 16 Aug 14:45:32 14:48:44 40° 286° (WNW) 14:51:54 437.505
Gurwin Techsat 1B 16 Aug 14:47:17 14:52:23 46° 261° (W) 14:57:30 435.225
AO-85 16 Aug 14:51:53 14:54:34 16° 46° (NE) 14:57:22 145.980
BEESAT 3 16 Aug 14:54:41 14:57:41 20° 47° (NE) 15:00:38 437.485
AO-7 16 Aug 15:08:42 15:16:44 55° 65° (ENE) 15:24:49 .
ITAMSAT 1 16 Aug 15:23:50 15:28:45 44° 70° (ENE) 15:33:41 435.822/435.867
YUBILEINY 16 Aug 15:30:28 15:36:19 20° 79° (E) 15:42:08 435.215
UKube-1 16 Aug 15:36:24 15:40:18 34° 290° (WNW) 15:44:10 .
BEESAT 16 Aug 15:43:19 15:47:24 28° 96° (E) 15:51:27 436.000
DX 1 16 Aug 15:48:04 15:51:01 18° 294° (WNW) 15:53:57 434.975-435.025
MOZHAYETS 4 16 Aug 16:12:01 16:16:28 47° 99° (E) 16:20:55
ITUPSAT 1 16 Aug 16:13:41 16:18:24 57° 101° (E) 16:23:05 437.325
CUBESAT XI-V 16 Aug 16:20:46 16:22:08 11° 89° (E) 16:23:28 437.345
RS-15 16 Aug 16:25:50 16:34:45 22° 344° (NNW) 16:43:35 29.354- 29.394
AO-85 16 Aug 16:30:59 16:35:17 62° 241° (WSW) 16:39:54 145.980
BEESAT 3 16 Aug 16:31:41 16:35:22 37° 245° (WSW) 16:38:59 437.485
BEESAT 2 16 Aug 16:33:15 16:37:18 68° 58° (ENE) 16:41:17 435.950
DOVE 4 16 Aug 17:01:51 17:06:26 31° 69° (ENE) 17:10:59 437.250
KKS-1 16 Aug 17:01:59 17:03:59 13° 92° (E) 17:05:59 437.445
AO-7 16 Aug 17:02:27 17:09:44 33° 263° (W) 17:17:05 .
ITAMSAT 1 16 Aug 17:04:29 17:08:23 21° 266° (W) 17:12:17 435.822/435.867
ISS 16 Aug 17:10:06 17:11:50 13° 16° (NNE) 17:13:34 437.550
BEESAT 16 Aug 17:21:01 17:25:06 29° 292° (WNW) 17:29:10 436.000
YUBILEINY 16 Aug 17:23:11 17:32:01 80° 278° (W) 17:40:50 435.215
nSIGHT-1 16 Aug 17:24:45 17:26:51 16° 20° (NNE) 17:28:56 .
Tancredo 1 16 Aug 17:25:23 17:28:02 31° 31° (NNE) 17:30:40 437.200
XW-2C 16 Aug 17:31:36 17:33:41 14° 67° (ENE) 17:35:46 145.795 - 145.815
SRMSAT 16 Aug 17:44:20 17:45:45 11° 179° (S) 17:47:11 437.500
XW-2F 16 Aug 17:47:09 17:49:57 21° 69° (ENE) 17:52:48 145.980 - 146.000
MOZHAYETS 4 16 Aug 17:50:18 17:53:14 17° 295° (WNW) 17:56:10
ITUPSAT 1 16 Aug 17:52:59 17:55:44 15° 297° (WNW) 17:58:29 437.325
STARS 16 Aug 17:53:49 17:57:00 19° 94° (E) 18:00:09 437.465
CUBESAT XI-V 16 Aug 17:55:14 17:59:56 69° 285° (WNW) 18:04:37 437.345
HO-68 16 Aug 18:08:31 18:13:41 22° 58° (ENE) 18:18:50 435.675
KAITUO 1B 16 Aug 18:20:10 18:23:39 42° 73° (ENE) 18:27:10 145.475/437.950
LilacSat-2 16 Aug 18:23:29 18:27:13 70° 75° (ENE) 18:30:59 437.200
XW-2D 16 Aug 18:34:02 18:37:46 87° 263° (W) 18:41:33 145.860 - 145.880
CUTE-I 16 Aug 18:35:44 18:41:05 77° 75° (ENE) 18:46:28 437.470
KKS-1 16 Aug 18:36:31 18:40:51 54° 287° (WNW) 18:45:09 437.445
DOVE 4 16 Aug 18:39:14 18:43:58 33° 264° (W) 18:48:42 437.250
RS-15 16 Aug 18:44:16 18:53:31 24° 21° (NNE) 19:02:26 29.354- 29.394
XW-2B 16 Aug 18:44:58 18:48:40 65° 259° (W) 18:52:25 145.730 - 145.750
ISS 16 Aug 18:45:41 18:48:53 54° 34° (NE) 18:52:05 437.550
CUBEBUG 2 16 Aug 18:46:04 18:47:03 11° 64° (ENE) 18:48:03 437.445
SEEDS 16 Aug 18:47:13 18:49:13 13° 65° (ENE) 18:51:13 437.485
nSIGHT-1 16 Aug 19:00:25 19:03:40 81° 41° (NE) 19:06:52 .
NUDT-PHONESAT 16 Aug 19:00:26 19:04:00 55° 259° (W) 19:07:38 437.300
Tancredo 1 16 Aug 19:00:52 19:03:10 21° 227° (SW) 19:05:26 437.200
XW-2C 16 Aug 19:04:06 19:07:33 35° 263° (W) 19:11:01 145.795 - 145.815
XW-2F 16 Aug 19:20:55 19:23:57 23° 265° (W) 19:26:59 145.980 - 146.000
CUTE 1.7 + AOD 2 16 Aug 19:22:53 19:26:59 53° 74° (ENE) 19:31:08 437.475
YUBILEINY 16 Aug 19:25:34 19:30:18 15° 299° (WNW) 19:35:04 435.215
STARS 16 Aug 19:29:27 19:33:23 34° 290° (WNW) 19:37:20 437.465
ZACube-1 16 Aug 19:39:23 19:41:14 13° 65° (ENE) 19:43:04 437.345
STRAND 1 16 Aug 19:44:06 19:47:59 22° 94° (E) 19:51:51 437.568
AAUSAT CUBESAT 2 16 Aug 19:46:01 19:49:29 26° 70° (ENE) 19:53:00 437.432
XW-2A 16 Aug 19:46:25 19:49:37 49° 75° (ENE) 19:52:51 145.665 - 145.685
HO-68 16 Aug 19:53:32 20:00:41 73° 256° (WSW) 20:07:52 435.675
KAITUO 1B 16 Aug 19:56:41 19:57:51 11° 269° (W) 19:59:01 145.475/437.950
AO-73 16 Aug 20:02:14 20:05:18 20° 68° (ENE) 20:08:22 145.935
O/OREOS (USA 219) 16 Aug 20:08:14 20:12:02 25° 60° (ENE) 20:15:49 437.305
CUBEBUG 2 16 Aug 20:18:47 20:23:08 67° 258° (WSW) 20:27:23 437.445
CUTE-I 16 Aug 20:19:35 20:21:40 12° 270° (W) 20:23:46 437.470
SEEDS 16 Aug 20:20:22 20:24:26 51° 261° (W) 20:28:33 437.485
UWE-3 16 Aug 20:21:56 20:26:11 75° 76° (ENE) 20:30:22 435.000/436.395/437.385
ISS 16 Aug 20:23:11 20:25:02 14° 230° (SW) 20:26:54 437.550
Oscar 11 16 Aug 20:51:49 20:56:01 56° 74° (ENE) 21:00:14 .
RS-15 16 Aug 20:57:28 21:09:25 59° 51° (NE) 21:20:40 29.354- 29.394
CUTE 1.7 + AOD 2 16 Aug 21:01:36 21:03:07 12° 270° (W) 21:04:40 437.475
FO-29 16 Aug 21:11:35 21:12:33 10° 86° (E) 21:13:29 435.910
ZACube-1 16 Aug 21:12:59 21:17:04 51° 260° (W) 21:21:07 437.345
AAUSAT CUBESAT 2 16 Aug 21:21:34 21:24:52 23° 265° (W) 21:28:14 437.432
STRAND 1 16 Aug 21:22:32 21:27:18 42° 289° (WNW) 21:32:03 437.568
DELFI C3 16 Aug 21:35:50 21:39:33 39° 73° (ENE) 21:43:19 145.870
AO-73 16 Aug 21:37:41 21:41:21 30° 263° (W) 21:45:01 145.935
O/OREOS (USA 219) 16 Aug 21:47:28 21:51:24 29° 256° (WSW) 21:55:20 437.305
HO-68 16 Aug 21:48:29 21:49:30 10° 273° (W) 21:50:30 435.675
EO-88 16 Aug 21:54:54 21:58:15 37° 73° (ENE) 22:01:38 145.990 - 145.960
TIGRISAT 16 Aug 22:13:24 22:16:10 17° 93° (E) 22:18:56 435.000
Max Valier Satellite 16 Aug 22:23:30 22:27:07 65° 259° (W) 22:30:45 145.860
Oscar 11 16 Aug 22:31:02 22:32:29 11° 270° (W) 22:33:56 .
ESTCUBE 1 16 Aug 22:45:48 22:48:37 17° 65° (ENE) 22:51:26 437.505/2401.250
FO-29 16 Aug 22:52:47 22:58:34 82° 285° (WNW) 23:03:50 435.910
PRISM 16 Aug 23:09:55 23:14:00 55° 100° (E) 23:18:01 437.425
RS-15 16 Aug 23:10:40 23:21:22 41° 253° (WSW) 23:31:35 29.354- 29.394
UNISAT 6 16 Aug 23:12:13 23:16:31 87° 97° (E) 23:20:53 437.425
DELFI C3 16 Aug 23:12:19 23:14:29 14° 268° (W) 23:16:39 145.870
EO-88 16 Aug 23:30:35 23:32:04 12° 268° (W) 23:33:33 145.990 - 145.960
SO-50 16 Aug 23:36:06 23:38:44 15° 109° (ESE) 23:41:21 436.795
PCSat 16 Aug 23:36:41 23:41:40 39° 111° (ESE) 23:46:41 145.827
LO-87 16 Aug 23:40:11 23:43:47 76° 258° (WSW) 23:47:24 145.935 - 145.965
TIGRISAT 16 Aug 23:49:01 23:52:59 39° 288° (WNW) 23:57:00 435.000
SPROUT 16 Aug 23:57:02 00:00:20 22° 68° (ENE) 00:03:40 437.525
DUCHIFAT 1 17 Aug 00:05:15 00:06:37 11° 91° (E) 00:08:00 145.980
ESTCUBE 1 17 Aug 00:20:42 00:25:01 46° 261° (W) 00:29:23 437.505/2401.250
AIST 2D 17 Aug 00:21:30 00:25:01 64° 101° (E) 00:28:32 435.315
M-CUBED/EXP-1 PRIME 17 Aug 00:34:36 00:39:02 62° 105° (ESE) 00:43:09 437.505
FO-29 17 Aug 00:41:27 00:42:30 11° 305° (NW) 00:43:33 435.910
NANOSAT C BR1 17 Aug 00:45:24 00:49:21 39° 99° (E) 00:53:16 145.865
POLYITAN 1 17 Aug 00:45:28 00:49:30 44° 99° (E) 00:53:31 437.675
PRISM 17 Aug 00:47:05 00:48:46 12° 296° (WNW) 00:50:26 437.425
VELOX 1 17 Aug 00:47:54 00:52:19 70° 76° (ENE) 00:56:47 145.980
UKube-1 17 Aug 00:55:05 00:57:40 16° 65° (ENE) 01:00:14 .
QB50P2 17 Aug 01:00:09 01:04:22 76° 102° (ESE) 01:08:35 145.880/145.840
EO-79 17 Aug 01:02:36 01:06:48 73° 103° (ESE) 01:10:59 145.935-145.965
DX 1 17 Aug 01:05:27 01:09:16 30° 70° (ENE) 01:13:07 434.975-435.025
SO-50 17 Aug 01:14:19 01:18:44 53° 305° (NW) 01:23:10 436.795
50 SAT 17 Aug 01:14:57 01:18:15 48° 74° (ENE) 01:21:35 437.505
PCSat 17 Aug 01:20:24 01:25:07 30° 308° (NW) 01:29:52 145.827
SPROUT 17 Aug 01:32:20 01:36:04 29° 263° (W) 01:39:49 437.525
DUCHIFAT 1 17 Aug 01:38:31 01:42:35 53° 287° (WNW) 01:46:38 145.980
BUGSAT 1 17 Aug 01:57:24 02:01:23 63° 101° (E) 02:05:21 437.445
M-CUBED/EXP-1 PRIME 17 Aug 02:10:36 02:12:49 14° 303° (WNW) 02:14:59 437.505
NANOSAT C BR1 17 Aug 02:22:05 02:24:43 16° 294° (WNW) 02:27:22 145.865
POLYITAN 1 17 Aug 02:22:30 02:24:53 15° 295° (WNW) 02:27:16 437.675
Oscar 19 17 Aug 02:27:56 02:33:02 54° 100° (E) 02:38:06 437.125/150
UKube-1 17 Aug 02:29:08 02:33:17 46° 260° (W) 02:37:28 .
DX 1 17 Aug 02:42:00 02:45:27 22° 265° (W) 02:48:55 434.975-435.025
BEESAT 17 Aug 02:48:39 02:52:44 29° 68° (ENE) 02:56:49 436.000
Gurwin Techsat 1B 17 Aug 03:04:14 03:09:34 77° 103° (ESE) 03:14:52 435.225
MOZHAYETS 4 17 Aug 03:12:43 03:16:56 39° 71° (ENE) 03:21:10
AO-7 17 Aug 03:13:31 03:18:24 17° 91° (E) 03:23:14 .
ITUPSAT 1 17 Aug 03:19:09 03:23:49 59° 73° (ENE) 03:28:30 437.325
CUBESAT XI-V 17 Aug 03:24:06 03:24:58 10° 61° (ENE) 03:25:50 437.345
NO-84 17 Aug 03:27:51 03:30:42 63° 317° (NW) 03:33:31 435.350 FM
YUBILEINY 17 Aug 03:34:56 03:43:20 49° 76° (ENE) 03:51:40 435.215
ITAMSAT 1 17 Aug 03:38:52 03:42:05 16° 92° (E) 03:45:18 435.822/435.867
KKS-1 17 Aug 03:59:50 04:01:25 12° 62° (ENE) 04:03:00 437.445
Oscar 19 17 Aug 04:08:22 04:11:54 19° 297° (WNW) 04:15:25 437.125/150
BEESAT 17 Aug 04:26:24 04:30:26 27° 264° (W) 04:34:30 436.000
Gurwin Techsat 1B 17 Aug 04:46:12 04:48:49 14° 299° (WNW) 04:51:25 435.225
STARS 17 Aug 04:49:50 04:52:37 17° 65° (ENE) 04:55:23 437.465
MOZHAYETS 4 17 Aug 04:51:05 04:54:13 18° 267° (W) 04:57:24
CUBESAT XI-V 17 Aug 04:56:59 05:01:37 81° 257° (WSW) 05:06:19 437.345
ITUPSAT 1 17 Aug 04:59:40 05:01:59 13° 269° (W) 05:04:19 437.325
AO-7 17 Aug 05:03:45 05:12:08 89° 108° (ESE) 05:20:27 .
ITAMSAT 1 17 Aug 05:16:49 05:21:52 56° 288° (WNW) 05:26:54 435.822/435.867
YUBILEINY 17 Aug 05:32:16 05:39:46 34° 275° (W) 05:47:16 435.215
KKS-1 17 Aug 05:32:55 05:37:23 68° 259° (WSW) 05:41:51 437.445
XW-2D 17 Aug 06:10:03 06:10:47 10° 91° (E) 06:11:30 145.860 - 145.880
BEESAT 3 17 Aug 06:19:40 06:23:25 42° 116° (ESE) 06:27:16 437.485
XW-2B 17 Aug 06:19:46 06:21:47 14° 92° (E) 06:23:46 145.730 - 145.750
STARS 17 Aug 06:24:21 06:28:34 44° 260° (W) 06:32:48 437.465
BEESAT 2 17 Aug 06:24:53 06:27:08 15° 109° (ESE) 06:29:25 435.950
NUDT-PHONESAT 17 Aug 06:32:50 06:34:54 14° 93° (E) 06:36:57 437.300
XW-2C 17 Aug 06:37:39 06:40:46 23° 95° (E) 06:43:53 145.795 - 145.815
DOVE 4 17 Aug 06:39:08 06:43:49 82° 103° (ESE) 06:48:11 437.250
AO-85 17 Aug 06:44:44 06:48:35 51° 117° (ESE) 06:52:23 145.980
XW-2F 17 Aug 06:53:12 06:56:43 34° 98° (E) 07:00:12 145.980 - 146.000
CUTE-I 17 Aug 06:54:13 06:58:59 33° 97° (E) 07:03:43 437.470
AO-7 17 Aug 06:58:06 07:03:50 21° 307° (NW) 07:09:33 .
STRAND 1 17 Aug 06:58:50 07:03:10 29° 67° (ENE) 07:07:30 437.568
CUTE 1.7 + AOD 2 17 Aug 07:12:00 07:12:14 10° 90° (E) 07:12:29 437.475
HO-68 17 Aug 07:23:23 07:28:53 23° 93° (E) 07:34:20 435.675
KAITUO 1B 17 Aug 07:25:43 07:29:31 73° 101° (ESE) 07:33:19 145.475/437.950
LilacSat-2 17 Aug 07:31:37 07:35:28 64° 284° (WNW) 07:39:17 437.200
XW-2D 17 Aug 07:41:29 07:45:12 49° 286° (WNW) 07:48:55 145.860 - 145.880
XW-2B 17 Aug 07:52:32 07:56:05 37° 287° (WNW) 07:59:39 145.730 - 145.750
BEESAT 3 17 Aug 07:58:20 08:01:12 18° 313° (NW) 08:04:04 437.485
BEESAT 2 17 Aug 08:00:38 08:04:29 45° 305° (NW) 08:08:23 435.950
SEEDS 17 Aug 08:05:18 08:08:56 27° 96° (E) 08:12:33 437.485
NUDT-PHONESAT 17 Aug 08:05:28 08:08:52 34° 287° (WNW) 08:12:16 437.300
SO-50 17 Aug 08:07:25 08:09:47 14° 41° (NE) 08:12:10 436.795
CUBEBUG 2 17 Aug 08:10:45 08:14:14 25° 96° (E) 08:17:45 437.445
XW-2C 17 Aug 08:11:49 08:14:50 22° 290° (WNW) 08:17:50 145.795 - 145.815
UWE-3 17 Aug 08:13:26 08:15:59 15° 93° (E) 08:18:33 435.000/436.395/437.385
PCSat 17 Aug 08:25:34 08:30:08 27° 51° (NE) 08:34:41 145.827
AO-85 17 Aug 08:26:59 08:29:15 15° 315° (NW) 08:31:31 145.980
XW-2F 17 Aug 08:28:12 08:30:32 16° 292° (WNW) 08:32:52 145.980 - 146.000
CUTE-I 17 Aug 08:34:21 08:38:55 30° 293° (WNW) 08:43:28 437.470
STRAND 1 17 Aug 08:37:40 08:42:13 32° 263° (W) 08:46:48 437.568
XW-2A 17 Aug 08:41:24 08:44:46 62° 101° (ESE) 08:48:07 145.665 - 145.685
Oscar 11 17 Aug 08:42:15 08:43:38 11° 90° (E) 08:45:02 .
CUTE 1.7 + AOD 2 17 Aug 08:44:12 08:48:27 64° 285° (WNW) 08:52:41 437.475
